When you browse on this site, cookies collect data to enhance your experience and personalize the content and advertising you see.
Visit our Privacy Policy to learn more. By continuing to use the site, you agree to this use of cookies and data.
  • en Suisse
  • Liste des pays
  • À 7 jours
  • Température de l'eau
  • Carte météo
  • Widgets météo
  • user-avatar
    Se connecter

    Météo par heure à Titkovo

    Ce jour, 19 Août, Lundi

    Heure Température Précipitation Vent Pression Humidité
    00:00 +14°C° 0 mm 2 m/s 742 mmHg 96%
    01:00 +14°C° 0 mm 2 m/s 743 mmHg 96%
    02:00 +14°C° 0 mm 2 m/s 743 mmHg 96%
    03:00 +13°C° 0 mm 2 m/s 743 mmHg 96%
    04:00 +13°C° 0 mm 1 m/s 744 mmHg 96%
    05:00 +13°C° 0 mm 1 m/s 744 mmHg 96%
    06:00 +14°C° 0 mm 1 m/s 744 mmHg 92%
    07:00 +16°C° 0 mm 1 m/s 745 mmHg 88%
    08:00 +19°C° 0 mm 1 m/s 745 mmHg 84%
    09:00 +19°C° 0 mm 2 m/s 745 mmHg 77%
    10:00 +21°C° 0 mm 2 m/s 745 mmHg 71%
    11:00 +24°C° 0 mm 3 m/s 746 mmHg 65%
    12:00 +24°C° 0 mm 3 m/s 746 mmHg 64%
    13:00 +25°C° 0 mm 3 m/s 746 mmHg 64%
    14:00 +26°C° 0 mm 3 m/s 746 mmHg 64%
    15:00 +25°C° 0 mm 3 m/s 746 mmHg 68%
    16:00 +25°C° 0 mm 3 m/s 746 mmHg 72%
    17:00 +25°C° 0 mm 3 m/s 746 mmHg 75%
    18:00 +22°C° 0 mm 3 m/s 746 mmHg 80%
    19:00 +21°C° 0 mm 2 m/s 746 mmHg 85%
    20:00 +19°C° 0 mm 2 m/s 746 mmHg 90%
    21:00 +19°C° 0 mm 2 m/s 746 mmHg 91%
    22:00 +18°C° 0 mm 3 m/s 746 mmHg 91%
    23:00 +18°C° 0 mm 3 m/s 746 mmHg 92%

    Demain, 20 Août, Mardi

    Heure Température Précipitation Vent Pression Humidité
    00:00 +18°C° 0 mm 3 m/s 747 mmHg 91%
    01:00 +17°C° 0 mm 3 m/s 747 mmHg 91%
    02:00 +17°C° 0 mm 3 m/s 747 mmHg 90%
    03:00 +17°C° 0.2 mm 3 m/s 747 mmHg 91%
    04:00 +17°C° 0.2 mm 2 m/s 747 mmHg 92%
    05:00 +16°C° 0.2 mm 2 m/s 748 mmHg 94%
    06:00 +17°C° 0.2 mm 2 m/s 748 mmHg 92%
    07:00 +19°C° 0.2 mm 2 m/s 748 mmHg 91%
    08:00 +20°C° 0.2 mm 2 m/s 748 mmHg 89%
    09:00 +21°C° 0 mm 2 m/s 748 mmHg 85%
    10:00 +24°C° 0 mm 2 m/s 748 mmHg 80%
    11:00 +25°C° 0 mm 2 m/s 748 mmHg 76%
    12:00 +25°C° 1 mm 2 m/s 748 mmHg 77%
    13:00 +26°C° 1 mm 3 m/s 749 mmHg 78%
    14:00 +26°C° 1 mm 3 m/s 749 mmHg 79%
    15:00 +26°C° 0.5 mm 2 m/s 749 mmHg 81%
    16:00 +26°C° 0.5 mm 2 m/s 749 mmHg 83%
    17:00 +26°C° 0.5 mm 2 m/s 749 mmHg 85%
    18:00 +24°C° 0.3 mm 1 m/s 749 mmHg 87%
    19:00 +23°C° 0.3 mm 1 m/s 749 mmHg 90%
    20:00 +21°C° 0.3 mm 1 m/s 749 mmHg 93%
    21:00 +21°C° 0.2 mm 1 m/s 749 mmHg 93%
    22:00 +20°C° 0.2 mm 1 m/s 749 mmHg 94%
    23:00 +20°C° 0.2 mm 1 m/s 750 mmHg 95%

    Après-demain, 21 Août, Mercredi

    Heure Température Précipitation Vent Pression Humidité
    00:00 +20°C° 0 mm 1 m/s 750 mmHg 95%
    01:00 +19°C° 0 mm 1 m/s 750 mmHg 95%
    02:00 +19°C° 0 mm 1 m/s 750 mmHg 95%
    03:00 +19°C° 0 mm 1 m/s 750 mmHg 95%
    04:00 +19°C° 0 mm 1 m/s 750 mmHg 96%
    05:00 +18°C° 0 mm 1 m/s 750 mmHg 96%
    06:00 +19°C° 0 mm 1 m/s 750 mmHg 93%
    07:00 +21°C° 0 mm 1 m/s 750 mmHg 91%
    08:00 +22°C° 0 mm 1 m/s 750 mmHg 89%
    09:00 +23°C° 0 mm 2 m/s 750 mmHg 84%
    10:00 +24°C° 0 mm 2 m/s 750 mmHg 79%
    11:00 +26°C° 0 mm 3 m/s 750 mmHg 74%
    12:00 +26°C° 0.2 mm 3 m/s 749 mmHg 72%
    13:00 +27°C° 0.2 mm 3 m/s 749 mmHg 70%
    14:00 +27°C° 0.2 mm 3 m/s 749 mmHg 68%
    15:00 +27°C° 0 mm 3 m/s 748 mmHg 70%
    16:00 +27°C° 0 mm 3 m/s 748 mmHg 72%
    17:00 +27°C° 0 mm 2 m/s 748 mmHg 75%
    18:00 +25°C° 0 mm 2 m/s 748 mmHg 79%
    19:00 +23°C° 0 mm 2 m/s 747 mmHg 83%
    20:00 +21°C° 0 mm 2 m/s 747 mmHg 88%
    21:00 +20°C° 0 mm 2 m/s 747 mmHg 87%
    22:00 +20°C° 0 mm 2 m/s 747 mmHg 87%
    23:00 +19°C° 0 mm 2 m/s 747 mmHg 87%

    22 Août, Jeudi

    Heure Température Précipitation Vent Pression Humidité
    00:00 +19°C° 0.1 mm 2 m/s 748 mmHg 88%
    01:00 +18°C° 0.1 mm 2 m/s 748 mmHg 89%
    02:00 +18°C° 0.1 mm 2 m/s 748 mmHg 90%
    03:00 +18°C° 0.3 mm 2 m/s 748 mmHg 92%
    04:00 +18°C° 0.3 mm 2 m/s 748 mmHg 94%
    05:00 +18°C° 0.3 mm 2 m/s 748 mmHg 96%
    06:00 +17°C° 0.1 mm 2 m/s 748 mmHg 95%
    07:00 +17°C° 0.1 mm 3 m/s 748 mmHg 95%
    08:00 +17°C° 0.1 mm 3 m/s 749 mmHg 94%
    09:00 +18°C° 0 mm 3 m/s 749 mmHg 91%
    10:00 +18°C° 0 mm 3 m/s 749 mmHg 89%
    11:00 +18°C° 0 mm 3 m/s 749 mmHg 86%
    12:00 +19°C° 0 mm 3 m/s 749 mmHg 84%
    13:00 +19°C° 0 mm 3 m/s 749 mmHg 82%
    14:00 +20°C° 0 mm 3 m/s 749 mmHg 80%
    15:00 +20°C° 0 mm 3 m/s 749 mmHg 80%
    16:00 +20°C° 0 mm 3 m/s 749 mmHg 81%
    17:00 +19°C° 0 mm 3 m/s 749 mmHg 82%
    18:00 +18°C° 0 mm 2 m/s 749 mmHg 84%
    19:00 +18°C° 0 mm 2 m/s 749 mmHg 87%
    20:00 +17°C° 0 mm 2 m/s 749 mmHg 89%
    21:00 +16°C° 0 mm 2 m/s 750 mmHg 90%
    22:00 +16°C° 0 mm 2 m/s 750 mmHg 91%
    23:00 +15°C° 0 mm 2 m/s 750 mmHg 92%

    23 Août, Vendredi

    Heure Température Précipitation Vent Pression Humidité
    00:00 +15°C° 0 mm 2 m/s 750 mmHg 92%
    01:00 +15°C° 0 mm 2 m/s 750 mmHg 92%
    02:00 +15°C° 0 mm 2 m/s 750 mmHg 92%
    03:00 +14°C° 0 mm 2 m/s 750 mmHg 92%
    04:00 +14°C° 0 mm 2 m/s 750 mmHg 93%
    05:00 +14°C° 0 mm 2 m/s 750 mmHg 93%
    06:00 +15°C° 0 mm 2 m/s 750 mmHg 89%
    07:00 +16°C° 0 mm 2 m/s 750 mmHg 85%
    08:00 +18°C° 0 mm 2 m/s 750 mmHg 80%
    09:00 +19°C° 0 mm 2 m/s 750 mmHg 74%
    10:00 +20°C° 0 mm 2 m/s 750 mmHg 69%
    11:00 +21°C° 0 mm 2 m/s 750 mmHg 63%
    12:00 +22°C° 0.1 mm 3 m/s 750 mmHg 62%
    13:00 +22°C° 0.1 mm 3 m/s 750 mmHg 61%
    14:00 +22°C° 0.1 mm 3 m/s 750 mmHg 60%
    15:00 +21°C° 0.3 mm 3 m/s 750 mmHg 66%
    16:00 +20°C° 0.3 mm 2 m/s 750 mmHg 73%
    17:00 +19°C° 0.3 mm 2 m/s 750 mmHg 80%
    18:00 +17°C° 0 mm 2 m/s 750 mmHg 82%
    19:00 +16°C° 0 mm 3 m/s 750 mmHg 85%
    20:00 +13°C° 0 mm 3 m/s 750 mmHg 87%
    21:00 +13°C° 0 mm 3 m/s 751 mmHg 89%
    22:00 +12°C° 0 mm 3 m/s 751 mmHg 90%
    23:00 +12°C° 0 mm 3 m/s 751 mmHg 92%

    24 Août, Samedi

    Heure Température Précipitation Vent Pression Humidité
    00:00 +11°C° 0 mm 3 m/s 751 mmHg 93%
    01:00 +11°C° 0 mm 3 m/s 751 mmHg 94%
    02:00 +10°C° 0 mm 3 m/s 751 mmHg 95%
    03:00 +10°C° 0 mm 2 m/s 752 mmHg 95%
    04:00 +10°C° 0 mm 2 m/s 752 mmHg 96%
    05:00 +9°C° 0 mm 2 m/s 752 mmHg 96%
    06:00 +12°C° 0 mm 2 m/s 752 mmHg 91%
    07:00 +14°C° 0 mm 2 m/s 752 mmHg 86%
    08:00 +15°C° 0 mm 2 m/s 753 mmHg 81%
    09:00 +17°C° 0 mm 2 m/s 753 mmHg 73%
    10:00 +18°C° 0 mm 2 m/s 753 mmHg 66%
    11:00 +20°C° 0 mm 2 m/s 753 mmHg 58%
    12:00 +21°C° 0 mm 2 m/s 753 mmHg 56%
    13:00 +21°C° 0 mm 2 m/s 753 mmHg 54%
    14:00 +23°C° 0 mm 2 m/s 753 mmHg 52%
    15:00 +21°C° 0 mm 2 m/s 753 mmHg 57%
    16:00 +22°C° 0 mm 1 m/s 752 mmHg 62%
    17:00 +22°C° 0 mm 1 m/s 752 mmHg 67%
    18:00 +20°C° 0 mm 1 m/s 752 mmHg 72%
    19:00 +18°C° 0 mm 1 m/s 752 mmHg 76%
    20:00 +15°C° 0 mm 1 m/s 752 mmHg 80%
    21:00 +14°C° 0 mm 1 m/s 753 mmHg 83%
    22:00 +14°C° 0 mm 1 m/s 753 mmHg 85%
    23:00 +13°C° 0 mm 1 m/s 753 mmHg 87%
    Voir plus